Regional Weather Roundup
Issued by NWS

Home | Current Version | Previous Version | Text Only | Print | Product List | Glossary Off
Versions: 1 2 3 4 5 6 7 8 9 10 11 12 13 14 15 16 17 18 19 20 21 22 23 24 25 26 27 28 29 30 31 32 33 34 35 36 37 38 39 40 41 42 43 44 45 46 47 48 49

008
ASUS45 KSLC 121710
RWRUT

UTAH REGIONAL WEATHER ROUNDUP
NATIONAL WEATHER SERVICE SALT LAKE CITY UT
1000 AM MST FRI FEB 12 2016

UTZ001>011-023>025-121800-

NORTHERN UTAH

CITY           SKY/WX    TMP DP  RH WIND       PRES   REMARKS
BRIGHAM CITY   CLOUDY    26  24  92 SE3       30.47S VSB 1
HILL AFB       PTSUNNY   26  25  96 N2        30.43S FOG
LOGAN          FOG       20  19  96 CALM      30.44S VSB 1/4
OGDEN          CLOUDY    27  26  96 CALM      30.44R FOG
PROVO AIRPORT  FOG       21  19  93 CALM      30.44S VSB 1/8
SALT LAKE CITY FOG       30  27  88 CALM      30.44S VSB 1
VERNAL         CLOUDY    24  19  81 SE3       30.46S HAZE
WENDOVER       CLOUDY    28  25  86 CALM      30.44F
HEBER CITY     SUNNY     23  16  74 CALM      30.40S
WEST JORDAN    CLOUDY    28  27  93 CALM      30.43F

$$

UTZ012>022-026-027-121800-

SOUTHERN/CENTRAL UTAH

CITY           SKY/WX    TMP DP  RH WIND       PRES   REMARKS
BLANDING       SUNNY     37  24  57 CALM      30.51S
BRYCE CANYON   SUNNY     22  13  68 SW3       30.45F
CEDAR CITY     MOSUNNY   27  23  85 CALM      30.37S
DELTA          CLOUDY    13  12  94 CALM      30.43S VSB<1/4
HANKSVILLE     SUNNY     34  30  86 CALM      30.48F
MILFORD        SNOW       9   9 100 S3        30.41S VSB 1/4
MOAB/CYNLANDS  SUNNY     36  29  75 CALM      30.45R
PRICE          SUNNY     38  23  55 CALM      30.43S
ST GEORGE      SUNNY     43  27  52 CALM      30.38R

$$

REGIONAL REPORTS     COLORADO/ARIZONA

CITY           SKY/WX    TMP DP  RH WIND       PRES   REMARKS
CRAIG, CO      CLOUDY    16  12  84 CALM      30.45S
GRAND JUNCTION SUNNY     35  24  64 CALM      30.45F
RIFLE          SUNNY     25  16  68 CALM      30.48S
MONTROSE       SUNNY     37  21  52 SE3       30.47F
CORTEZ         SUNNY     37  19  48 CALM      30.45S
PAGE, AZ       SUNNY     43  31  62 CALM      30.42S
GRAND CANYON   SUNNY     57  15  19 SE3       30.42R
KINGMAN        SUNNY     58  23  26 CALM      30.28R
FLAGSTAFF      SUNNY     48  16  27 NE3       30.44R

$$

REGIONAL REPORTS    NEVADA/IDAHO/WYOMING

CITY           SKY/WX    TMP DP  RH WIND       PRES   REMARKS
LAS VEGAS, NV  MOSUNNY   59  23  25 CALM      30.24R
ELY            PTSUNNY   24  14  65 S16       30.37F WCI  11
ELKO           PTSUNNY   14   9  80 E3        30.42R
POCATELLO, ID  CLOUDY    32  23  69 VRB3      30.37S
BURLEY           N/A    N/A N/A N/A MISG      30.32S
EVANSTON, WY   CLOUDY    36  16  44 SE7       30.38F WCI  30
ROCK SPRINGS   CLOUDY    38  23  55 CALM      30.37F

$$




USA.gov is the U.S. government's official web portal to all federal, state and local government web resources and services.